Location: ??
(35.5672°N, 139.6509°E)
Time: 10:42:30
(UTC+00:00)

Cosmos 1461 - Pass Details

Date: 03 August 2024
Orbit: 494 x 569 km, 65.0° (Epoch: 08 September)

Event Time Altitude Azimuth Distance (km) Brightness Sun altitude
Rises 11:58:34 0° 324° (NW) 2,600 7.7 -23.7°
Reaches altitude 10° 12:00:45 10° 318° (NW) 1,722 6.4 -24.0°
Enters shadow 12:04:07 45° 261° (W) 708 3.5 -24.5°
